Regional Weather Roundup
Issued by NWS

Home | Current Version | Previous Version | Text Only | Print | Product List | Glossary Off
Versions: 1 2 3 4 5 6 7 8 9 10 11 12 13 14 15 16 17 18 19 20 21 22 23 24 25 26 27 28 29 30 31 32 33 34 35 36 37 38 39 40 41 42 43 44 45 46 47 48 49 50

000
ASUS45 KCYS 241310
RWRWY

WYOMING REGIONAL WEATHER ROUNDUP
NATIONAL WEATHER SERVICE CHEYENNE WY
700 AM MDT SUN MAY 24 2015

NOTE:  "FAIR" INDICATES FEW OR NO CLOUDS BELOW 12,000 FEET
WITH NO SIGNIFICANT WEATHER AND/OR OBSTRUCTIONS TO VISIBILITY.

WYZ001-241400-
YELLOWSTONE NATIONAL PARK

CITY           SKY/WX    TMP DP  RH WIND       PRES   REMARKS
LK YELLOWSTONE   N/A     37  32  82 CALM      30.08S
W YELLOWSTONE  NOT AVBL

$$
WYZ002>013-054>058-071-098>099-241400-
NORTHERN WYOMING

CITY           SKY/WX    TMP DP  RH WIND       PRES   REMARKS
JACKSON        PTSUNNY   37  37 100 VRB5      30.01S WCI  34
CODY           CLOUDY    45  43  93 N12       30.03S
GREYBULL       PTSUNNY   51  45  79 NW18      29.94S
WORLAND        CLOUDY    49  45  86 NW8       29.96R
SHERIDAN       RAIN      49  47  93 N7        30.01S FOG
BUFFALO        RAIN      46  45  96 N16G28    29.99F FOG
GILLETTE       LGT RAIN  50  48  93 NE12      29.96R
HULETT         LGT RAIN  50  48  93 NE8       29.99S
NEWCASTLE      HVY RAIN  50  50 100 SE3       29.95R

$$
WYZ014>020-022>026-101>103-241400-
CENTRAL WYOMING

CITY           SKY/WX    TMP DP  RH WIND       PRES   REMARKS
BIG PINEY      CLOUDY    39  35  86 W3        29.99S
PINEDALE       CLOUDY    36  36 100 W3        30.00R
DUBOIS         CLOUDY    36  34  93 NW5       30.00S WCI  32
LANDER         LGT RAIN  44  42  93 CALM      29.96S FOG
RIVERTON       LGT RAIN  45  42  89 N15       29.97S
CASPER         LGT RAIN  44  42  93 W3        29.92R
DOUGLAS        LGT RAIN  47  46  97 CALM      29.91F FOG

$$
WYZ021-027>030-104>119-241400-
SOUTHERN WYOMING

CITY           SKY/WX    TMP DP  RH WIND       PRES   REMARKS
EVANSTON       FAIR      37  35  92 SW5       30.00R WCI  33
KEMMERER       FAIR      36  34  93 NW6       30.00S WCI  31
FORT BRIDGER   CLOUDY    41  41 100 W7        30.02R
ROCK SPRINGS   RAIN      38  36  92 NE8       29.98R FOG     WCI  32
DIXON          RAIN      40  37  90 SW7       29.99S
RAWLINS        LGT RAIN  36  34  92 SW3       29.95S FOG
SARATOGA       RAIN      34  34 100 CALM      29.95F
LARAMIE        CLOUDY    40  37  89 S7        29.94S
CHEYENNE       FAIR      41  39  93 W5        29.93S
TORRINGTON     CLOUDY    50  48  93 CALM      29.89S
PINE BLUFFS    CLOUDY    45  45 100 CALM      29.92S

$$



USA.gov is the U.S. government's official web portal to all federal, state and local government web resources and services.